When you browse on this site, cookies collect data to enhance your experience and personalize the content and advertising you see.
Visit our Privacy Policy to learn more. By continuing to use the site, you agree to this use of cookies and data.
  • In Germany
  • List of Countries
  • For 7 days
  • Water Temperature
  • Weather Map
  • Weather Widgets
  • user-avatar
    Login

    Hourly Weather La Rioja

    Today, 27 May, Wednesday

    Time Temperature Precipitation Wind Pressure Humidity
    00:00 +14°C° 0 mm 2 mps 712 mmHg 50%
    01:00 +14°C° 0 mm 2 mps 712 mmHg 52%
    02:00 +13°C° 0 mm 2 mps 711 mmHg 54%
    03:00 +13°C° 0 mm 2 mps 711 mmHg 55%
    04:00 +13°C° 0 mm 2 mps 711 mmHg 56%
    05:00 +12°C° 0 mm 2 mps 710 mmHg 58%
    06:00 +13°C° 0 mm 2 mps 711 mmHg 55%
    07:00 +13°C° 0 mm 2 mps 711 mmHg 53%
    08:00 +14°C° 0 mm 2 mps 712 mmHg 50%
    09:00 +16°C° 0 mm 2 mps 712 mmHg 44%
    10:00 +19°C° 0 mm 2 mps 712 mmHg 38%
    11:00 +21°C° 0 mm 3 mps 712 mmHg 33%
    12:00 +22°C° 0 mm 3 mps 712 mmHg 32%
    13:00 +24°C° 0 mm 2 mps 711 mmHg 31%
    14:00 +25°C° 0 mm 2 mps 711 mmHg 31%
    15:00 +24°C° 0 mm 2 mps 711 mmHg 33%
    16:00 +23°C° 0 mm 2 mps 711 mmHg 35%
    17:00 +21°C° 0 mm 2 mps 711 mmHg 38%
    18:00 +20°C° 0 mm 2 mps 712 mmHg 42%
    19:00 +18°C° 0 mm 2 mps 712 mmHg 46%
    20:00 +16°C° 0 mm 2 mps 713 mmHg 50%
    21:00 +16°C° 0 mm 2 mps 713 mmHg 51%
    22:00 +16°C° 0 mm 2 mps 713 mmHg 52%
    23:00 +15°C° 0 mm 2 mps 714 mmHg 54%

    Tomorrow, 28 May, Thursday

    Time Temperature Precipitation Wind Pressure Humidity
    00:00 +15°C° 0 mm 1 mps 713 mmHg 58%
    01:00 +14°C° 0 mm 1 mps 713 mmHg 62%
    02:00 +13°C° 0 mm 1 mps 712 mmHg 66%
    03:00 +13°C° 0 mm 1 mps 712 mmHg 68%
    04:00 +12°C° 0 mm 1 mps 712 mmHg 69%
    05:00 +12°C° 0 mm 1 mps 712 mmHg 71%
    06:00 +13°C° 0 mm 1 mps 712 mmHg 66%
    07:00 +14°C° 0 mm 1 mps 713 mmHg 61%
    08:00 +14°C° 0 mm 1 mps 713 mmHg 57%
    09:00 +18°C° 0 mm 1 mps 713 mmHg 49%
    10:00 +19°C° 0 mm 2 mps 713 mmHg 42%
    11:00 +21°C° 0 mm 2 mps 713 mmHg 34%
    12:00 +23°C° 0 mm 2 mps 712 mmHg 33%
    13:00 +24°C° 0 mm 2 mps 711 mmHg 31%
    14:00 +25°C° 0 mm 2 mps 711 mmHg 30%
    15:00 +24°C° 0 mm 2 mps 711 mmHg 32%
    16:00 +23°C° 0 mm 2 mps 710 mmHg 35%
    17:00 +23°C° 0 mm 2 mps 710 mmHg 37%
    18:00 +20°C° 0 mm 2 mps 710 mmHg 43%
    19:00 +19°C° 0 mm 1 mps 711 mmHg 49%
    20:00 +16°C° 0 mm 1 mps 711 mmHg 56%
    21:00 +15°C° 0 mm 1 mps 711 mmHg 57%
    22:00 +15°C° 0 mm 1 mps 711 mmHg 59%
    23:00 +15°C° 0 mm 1 mps 711 mmHg 61%

    Day after tomorrow, 29 May, Friday

    Time Temperature Precipitation Wind Pressure Humidity
    00:00 +14°C° 0 mm 1 mps 710 mmHg 63%
    01:00 +14°C° 0 mm 1 mps 710 mmHg 66%
    02:00 +14°C° 0 mm 1 mps 710 mmHg 68%
    03:00 +13°C° 0 mm 1 mps 710 mmHg 69%
    04:00 +13°C° 0 mm 1 mps 709 mmHg 70%
    05:00 +13°C° 0 mm 1 mps 709 mmHg 70%
    06:00 +14°C° 0 mm 1 mps 709 mmHg 66%
    07:00 +14°C° 0 mm 1 mps 710 mmHg 62%
    08:00 +15°C° 0 mm 1 mps 710 mmHg 58%
    09:00 +19°C° 0 mm 1 mps 710 mmHg 51%
    10:00 +21°C° 0 mm 1 mps 711 mmHg 45%
    11:00 +23°C° 0 mm 2 mps 711 mmHg 38%
    12:00 +24°C° 0 mm 2 mps 711 mmHg 37%
    13:00 +24°C° 0 mm 2 mps 710 mmHg 37%
    14:00 +25°C° 0 mm 2 mps 709 mmHg 36%
    15:00 +24°C° 0 mm 2 mps 709 mmHg 39%
    16:00 +24°C° 0 mm 1 mps 709 mmHg 42%
    17:00 +23°C° 0 mm 1 mps 709 mmHg 44%
    18:00 +21°C° 0 mm 1 mps 710 mmHg 49%
    19:00 +19°C° 0 mm 1 mps 710 mmHg 55%
    20:00 +17°C° 0 mm 2 mps 711 mmHg 60%
    21:00 +16°C° 0 mm 2 mps 711 mmHg 60%
    22:00 +16°C° 0 mm 3 mps 711 mmHg 61%
    23:00 +16°C° 0 mm 3 mps 712 mmHg 62%

    30 May, Saturday

    Time Temperature Precipitation Wind Pressure Humidity
    00:00 +14°C° 0 mm 4 mps 712 mmHg 65%
    01:00 +13°C° 0 mm 4 mps 712 mmHg 69%
    02:00 +12°C° 0 mm 4 mps 713 mmHg 73%
    03:00 +12°C° 0 mm 4 mps 713 mmHg 75%
    04:00 +11°C° 0 mm 4 mps 713 mmHg 78%
    05:00 +11°C° 0 mm 4 mps 713 mmHg 80%
    06:00 +11°C° 0 mm 4 mps 714 mmHg 79%
    07:00 +11°C° 0 mm 4 mps 715 mmHg 79%
    08:00 +11°C° 0 mm 4 mps 716 mmHg 78%
    09:00 +12°C° 0 mm 4 mps 716 mmHg 72%
    10:00 +13°C° 0 mm 4 mps 717 mmHg 66%
    11:00 +14°C° 0 mm 4 mps 717 mmHg 60%
    12:00 +14°C° 0 mm 5 mps 717 mmHg 58%
    13:00 +14°C° 0 mm 6 mps 716 mmHg 56%
    14:00 +14°C° 0 mm 6 mps 716 mmHg 54%
    15:00 +14°C° 0 mm 7 mps 716 mmHg 53%
    16:00 +12°C° 0 mm 7 mps 716 mmHg 52%
    17:00 +12°C° 0 mm 8 mps 716 mmHg 51%
    18:00 +11°C° 0 mm 7 mps 717 mmHg 52%
    19:00 +10°C° 0 mm 6 mps 718 mmHg 52%
    20:00 +9°C° 0 mm 6 mps 719 mmHg 53%
    21:00 +9°C° 0 mm 5 mps 719 mmHg 54%
    22:00 +10°C° 0 mm 4 mps 719 mmHg 56%
    23:00 +8°C° 0 mm 4 mps 720 mmHg 57%

    31 May, Sunday

    Time Temperature Precipitation Wind Pressure Humidity
    00:00 +9°C° 0 mm 3 mps 720 mmHg 58%
    01:00 +9°C° 0 mm 2 mps 720 mmHg 60%
    02:00 +8°C° 0 mm 2 mps 720 mmHg 61%
    03:00 +9°C° 0 mm 1 mps 719 mmHg 65%
    04:00 +8°C° 0 mm 1 mps 719 mmHg 69%
    05:00 +7°C° 0 mm 1 mps 719 mmHg 72%
    06:00 +8°C° 0 mm 1 mps 719 mmHg 70%
    07:00 +8°C° 0 mm 1 mps 719 mmHg 68%
    08:00 +9°C° 0 mm 1 mps 720 mmHg 65%
    09:00 +10°C° 0 mm 1 mps 720 mmHg 59%
    10:00 +12°C° 0 mm 2 mps 720 mmHg 54%
    11:00 +13°C° 0 mm 2 mps 720 mmHg 48%
    12:00 +14°C° 0 mm 2 mps 719 mmHg 45%
    13:00 +15°C° 0 mm 2 mps 718 mmHg 42%
    14:00 +16°C° 0 mm 2 mps 718 mmHg 39%
    15:00 +16°C° 0 mm 2 mps 718 mmHg 39%
    16:00 +15°C° 0 mm 2 mps 718 mmHg 40%
    17:00 +15°C° 0 mm 2 mps 718 mmHg 40%
    18:00 +13°C° 0 mm 1 mps 718 mmHg 45%
    19:00 +12°C° 0 mm 1 mps 718 mmHg 49%
    20:00 +10°C° 0 mm 1 mps 718 mmHg 54%
    21:00 +9°C° 0 mm 1 mps 718 mmHg 56%
    22:00 +9°C° 0 mm 1 mps 719 mmHg 58%
    23:00 +8°C° 0 mm 0 mps 719 mmHg 60%

    1 June, Monday

    Time Temperature Precipitation Wind Pressure Humidity
    00:00 +8°C° 0 mm 1 mps 719 mmHg 62%
    01:00 +8°C° 0 mm 1 mps 719 mmHg 65%
    02:00 +8°C° 0 mm 1 mps 718 mmHg 67%
    03:00 +7°C° 0 mm 1 mps 718 mmHg 69%
    04:00 +7°C° 0 mm 1 mps 718 mmHg 70%
    05:00 +6°C° 0 mm 0 mps 718 mmHg 71%
    06:00 +8°C° 0 mm 1 mps 718 mmHg 67%
    07:00 +9°C° 0 mm 1 mps 719 mmHg 63%
    08:00 +10°C° 0 mm 1 mps 719 mmHg 59%
    09:00 +12°C° 0 mm 1 mps 719 mmHg 51%
    10:00 +14°C° 0 mm 1 mps 720 mmHg 43%
    11:00 +18°C° 0 mm 1 mps 720 mmHg 35%
    12:00 +17°C° 0 mm 2 mps 719 mmHg 34%
    13:00 +18°C° 0 mm 2 mps 718 mmHg 33%
    14:00 +19°C° 0 mm 2 mps 717 mmHg 31%
    15:00 +19°C° 0 mm 2 mps 717 mmHg 33%
    16:00 +18°C° 0 mm 2 mps 717 mmHg 34%
    17:00 +18°C° 0 mm 2 mps 717 mmHg 36%
    18:00 +16°C° 0 mm 2 mps 717 mmHg 42%
    19:00 +13°C° 0 mm 1 mps 716 mmHg 48%
    20:00 +11°C° 0 mm 1 mps 716 mmHg 53%
    21:00 +11°C° 0 mm 1 mps 716 mmHg 55%
    22:00 +10°C° 0 mm 1 mps 716 mmHg 56%
    23:00 +10°C° 0 mm 1 mps 716 mmHg 57%
    Show more